Theta_e
311 311 310 309 309 309 308 309 309 309 310 311 311 311 311 310 310 311 313 313 314 315 312 311 311 311 321 335 336 326 324 332 340 349 351 354 356 353 350 349 350 348 346 345 346 347 348
312 310 309 308 308 308 308 308 308 308 309 310 311 311 311 310 310 310 312 313 314 315 312 311 310 311 329 334 337 335 339 341 347 349 350 351 352 351 352 349 350 348 346 346 347 347 347
310 310 308 307 307 307 307 307 307 308 308 308 309 310 310 310 310 310 312 313 315 314 312 311 310 319 328 328 337 337 341 345 347 350 352 351 351 353 349 350 348 347 347 347 347 347 347
308 306 306 305 305 305 306 307 307 307 307 308 308 309 310 310 310 310 312 313 315 313 312 311 310 325 330 323 335 337 342 344 348 350 350 350 350 351 351 349 349 349 347 349 348 347 346
308 308 305 304 304 304 305 306 307 307 307 307 308 309 310 310 310 310 312 316 313 312 311 311 321 327 330 324 335 338 342 346 348 350 350 350 349 351 349 351 356 353 358 353 348 345 347
306 305 306 304 304 304 304 305 306 306 307 307 308 309 310 310 310 310 313 316 315 312 313 321 321 327 328 329 332 338 342 341 347 350 352 352 351 350 351 351 355 357 353 350 348 346 346
308 307 305 304 304 303 304 304 305 306 307 307 309 310 310 311 310 310 319 323 327 328 324 326 327 331 330 329 330 336 336 340 345 348 353 347 350 352 350 345 340 342 346 349 350 347 348
309 308 306 305 304 303 303 304 305 306 307 308 310 310 311 312 311 310 312 328 329 328 329 324 324 325 328 330 330 333 334 338 341 349 348 347 348 349 347 345 339 342 350 352 351 350 351
307 308 308 305 304 303 303 304 305 306 307 309 311 311 311 312 311 310 321 325 328 327 330 328 325 325 326 327 332 333 334 335 338 343 346 346 348 346 346 345 339 344 350 350 352 348 348
307 305 307 306 304 303 303 304 305 306 307 310 312 312 312 312 316 322 322 323 326 326 331 330 328 327 327 328 330 332 332 335 335 338 342 345 343 347 345 344 339 346 338 340 346 346 358
308 307 306 306 304 303 303 303 304 306 307 311 313 315 316 312 319 323 326 325 325 328 337 332 330 328 327 327 330 331 331 334 335 336 341 345 343 344 345 343 338 339 337 339 340 342 345
308 308 307 307 304 303 303 303 304 306 309 313 314 318 318 319 317 322 323 324 327 332 333 334 332 329 326 325 328 330 330 333 334 334 337 340 342 341 342 341 339 338 338 340 342 341 346
308 308 307 308 306 304 303 303 304 306 310 314 316 320 318 317 323 320 323 328 332 334 335 334 331 328 326 326 327 328 330 333 334 335 336 337 338 340 339 341 340 339 339 339 344 347 360
309 308 307 307 307 305 304 303 304 306 312 314 319 319 321 317 320 320 325 331 335 333 333 334 332 328 326 327 327 327 329 331 332 333 334 336 337 338 338 339 341 342 340 342 342 339 348
309 308 307 307 307 306 306 304 304 307 313 316 320 323 323 323 318 322 329 333 334 334 334 336 332 331 329 328 329 328 328 329 331 332 334 335 336 335 337 337 339 341 341 338 336 336 338
308 308 308 306 307 307 306 305 305 310 315 317 320 324 328 323 320 324 330 331 332 331 335 336 337 334 334 332 329 329 329 329 329 331 331 332 335 333 333 334 335 336 337 337 335 339 342
307 307 307 307 307 307 306 305 306 314 315 320 321 330 325 323 320 326 331 332 332 332 333 336 337 336 334 336 333 330 329 329 330 329 330 330 332 333 331 332 335 333 333 333 334 335 338
307 306 306 307 307 307 307 306 306 313 315 320 326 328 324 321 321 324 329 331 326 332 331 334 333 334 336 333 333 330 329 331 330 330 330 330 331 332 333 333 333 332 332 332 334 337 335
306 306 306 306 307 307 307 306 306 312 312 316 332 330 321 319 321 324 327 329 331 332 332 333 334 333 335 336 333 331 330 333 332 332 332 332 330 331 333 334 333 331 332 333 333 333 337
305 306 306 306 306 306 307 305 306 314 313 315 332 330 325 322 324 325 326 329 331 332 332 332 333 333 333 336 337 339 331 333 333 332 334 333 332 331 333 335 335 334 333 334 334 335 334
306 306 306 306 306 307 307 305 305 315 316 317 330 334 330 325 324 325 326 328 328 330 330 330 331 332 334 336 337 337 337 336 336 336 335 334 337 334 334 333 334 334 335 334 334 334 336
305 305 305 306 306 308 308 307 304 312 318 322 332 333 333 329 329 327 323 329 328 329 329 332 332 332 333 335 336 338 338 338 339 338 338 336 339 338 339 337 334 334 333 332 333 335 335
305 306 307 306 307 307 308 307 305 308 318 322 320 326 331 331 331 328 328 328 329 328 330 331 331 333 332 333 334 335 335 337 338 340 340 339 339 340 342 338 338 339 336 335 335 334 336
303 305 306 306 307 308 308 308 307 305 313 318 320 322 329 329 332 332 331 330 330 330 331 332 331 333 333 330 331 331 332 334 335 337 336 340 342 343 342 340 342 339 341 339 338 336 338
304 305 305 307 307 307 307 308 309 305 307 316 319 321 326 329 328 331 331 331 331 330 330 331 331 331 329 329 331 333 333 333 333 334 335 335 336 340 343 341 339 337 344 340 339 339 342
303 303 303 304 307 307 308 308 308 306 306 313 319 317 322 326 330 330 331 330 332 331 331 330 330 329 328 330 333 337 336 334 334 335 333 333 335 337 339 341 341 338 343 342 342 344 345
302 303 303 305 307 308 308 308 307 306 307 310 317 315 320 324 322 324 327 331 331 332 331 332 331 331 328 332 333 333 334 334 336 336 336 334 335 336 336 337 336 340 340 339 340 346 345
302 303 303 306 308 308 308 308 309 308 307 309 315 316 317 320 319 318 321 328 328 329 332 333 332 331 332 333 333 333 333 333 334 335 335 336 338 337 336 337 337 336 337 340 348 345 345
302 303 303 305 306 306 306 307 310 311 309 310 315 315 316 318 319 317 317 317 323 325 327 329 331 335 336 335 332 333 333 332 333 334 332 334 333 335 336 338 337 334 339 339 341 344 344
Wind_Speed
17 17 17 17 17 17 17 18 18 19 18 17 15 12 9 7 6 6 5 5 5 5 6 4 4 6 5 9 5 8 13 15 17 13 12 8 12 12 7 4 1 2 7 10 13 8 10
18 18 17 17 17 17 16 17 18 19 19 19 17 15 11 8 6 6 5 5 5 6 5 4 4 6 6 9 5 13 16 18 13 14 9 9 6 7 9 5 6 4 3 10 12 9 7
19 19 18 18 17 17 17 17 17 19 20 19 19 17 13 10 7 6 5 5 5 5 5 3 4 4 10 3 4 12 16 16 12 12 6 3 9 11 9 5 1 4 9 9 12 11 10
20 20 19 19 18 18 18 17 17 18 20 21 19 19 15 11 8 5 5 5 5 5 4 3 5 6 5 4 5 13 15 14 11 11 11 10 11 12 12 4 11 15 14 7 9 9 9
21 21 20 20 20 19 18 18 18 18 19 22 20 19 16 12 8 5 3 4 3 3 4 3 5 10 5 7 11 15 15 13 12 11 12 11 13 14 8 4 6 11 10 20 16 7 10
22 22 21 21 21 21 20 21 20 20 21 23 21 20 17 12 7 4 2 4 4 4 5 6 11 8 8 12 14 16 15 10 11 10 11 13 12 12 1 2 6 7 9 14 9 12 11
21 22 22 22 22 23 22 21 21 21 22 23 22 21 18 13 7 4 1 3 6 7 15 12 9 9 9 9 11 15 15 14 12 10 15 11 12 4 12 1 8 9 12 9 10 6 6
21 22 23 23 23 23 23 22 23 22 24 25 23 21 18 14 7 5 6 8 8 7 9 20 11 9 3 16 11 14 16 12 14 14 16 7 15 16 4 8 11 8 12 6 4 6 7
22 22 23 23 24 24 24 24 25 24 26 27 25 21 17 12 5 5 11 11 4 9 8 15 17 16 15 12 13 17 18 18 13 15 16 15 6 7 7 11 10 6 6 2 7 8 13
22 23 23 24 24 24 25 25 26 26 27 28 26 22 17 9 2 2 13 11 6 6 7 15 14 13 20 13 19 13 22 17 16 17 16 13 13 6 11 10 9 8 8 6 3 10 3
21 22 23 24 25 25 26 26 27 28 29 29 27 23 17 7 10 11 5 4 5 6 6 11 13 6 13 18 12 18 18 20 18 15 10 12 14 10 15 6 7 4 5 6 2 6 11
22 22 23 24 25 26 27 27 28 30 31 31 28 24 14 2 8 9 4 5 6 7 7 9 10 13 18 18 19 9 17 20 13 19 15 18 7 8 10 5 7 7 11 11 11 9 6
22 23 23 24 25 26 27 28 29 30 33 32 27 20 11 7 1 3 7 9 7 10 6 10 12 17 19 17 21 14 17 18 16 13 15 17 20 14 16 15 14 11 15 13 11 10 5
22 23 24 25 26 27 29 28 30 31 34 33 24 12 7 11 5 6 9 9 10 9 11 4 6 15 18 17 19 16 16 18 21 22 15 15 14 24 18 16 18 9 17 13 9 2 8
22 23 24 26 27 28 30 30 30 32 35 31 15 4 9 6 13 9 9 12 12 12 3 6 9 11 17 18 11 17 17 15 19 19 18 10 10 2 11 14 18 17 15 15 15 17 9
22 23 24 26 28 30 30 32 32 33 34 24 9 8 8 7 12 12 9 17 15 3 8 6 12 13 14 16 16 16 16 14 16 16 15 17 12 6 9 10 13 16 17 11 8 14 13
23 24 25 26 29 30 31 32 33 35 32 12 6 5 6 9 13 8 12 18 18 6 6 9 11 8 12 10 15 17 13 9 9 14 13 15 13 9 7 13 18 11 15 15 19 12 4
22 23 25 26 28 30 31 33 33 37 32 6 8 7 7 15 9 11 14 21 8 8 10 11 6 12 13 10 9 16 15 9 10 9 13 14 12 11 13 8 5 12 15 16 11 13 11
22 23 24 27 28 30 32 33 32 34 24 11 4 3 8 13 8 12 18 21 20 10 15 10 9 6 3 11 8 14 13 11 9 7 6 10 10 12 16 14 9 11 14 15 13 14 7
21 23 24 26 28 29 32 33 30 31 19 3 5 5 5 8 13 13 13 17 16 11 17 14 12 13 10 12 8 6 14 9 6 11 5 5 13 15 11 11 5 19 16 11 14 8 10
22 23 24 26 28 30 32 33 30 28 15 3 5 3 5 7 12 14 14 12 16 16 12 12 14 18 16 14 15 14 13 10 8 6 5 9 15 17 16 16 8 15 12 16 14 16 16
21 22 23 25 27 30 32 32 31 29 14 6 6 4 4 10 4 9 6 13 13 11 12 10 15 17 15 19 17 15 14 15 11 13 13 14 14 10 15 14 12 15 16 17 19 13 17
20 21 23 24 26 28 30 31 31 31 17 6 11 8 5 4 10 10 12 13 9 13 5 9 12 9 13 10 13 9 9 13 8 10 13 16 12 13 15 17 16 13 15 17 17 16 12
19 21 23 23 25 25 27 29 28 26 19 10 11 10 6 11 6 5 2 4 8 10 12 3 6 11 5 7 9 12 16 14 6 11 12 10 10 11 14 16 20 14 5 9 12 11 3
19 21 22 23 24 25 25 27 27 24 21 10 11 7 5 8 5 5 7 8 7 6 10 13 3 5 6 6 8 12 12 16 15 16 10 15 13 13 14 16 18 22 9 11 10 14 10
18 18 20 22 23 24 24 24 24 23 22 10 7 10 7 6 3 8 9 8 10 9 11 9 2 6 7 9 10 13 13 17 20 19 10 15 11 10 13 18 21 17 13 9 6 12 11
18 18 20 21 21 22 22 23 23 22 21 13 6 11 8 7 3 8 5 8 6 9 9 4 3 6 7 9 11 11 14 17 14 17 11 11 12 15 13 15 18 7 7 1 8 3 6
18 17 19 20 20 21 22 22 22 20 19 16 7 8 9 5 12 8 9 8 6 6 9 7 6 9 7 9 10 10 12 9 7 14 8 9 9 10 11 16 20 8 1 7 6 2 4
17 17 18 19 20 22 24 24 20 18 16 12 6 9 9 7 8 14 15 13 10 9 8 5 7 4 7 5 5 6 9 5 9 10 8 10 12 10 8 6 5 5 5 3 4 3 6
Wind_Direction
23 21 22 20 22 19 20 17 16 14 12 8 3 358 348 339 322 310 301 297 282 275 281 286 294 305 312 231 59 142 145 155 164 200 212 234 258 313 34 107 151 349 100 108 113 145 130
23 21 20 17 19 15 16 15 13 10 8 6 3 357 346 337 320 308 299 289 272 260 266 272 284 299 258 250 95 153 156 167 185 208 220 252 336 337 279 338 46 52 142 124 130 120 142
24 19 20 16 14 13 10 11 10 7 6 3 1 355 347 333 322 306 299 282 266 248 251 250 266 287 263 358 156 169 177 187 204 223 241 269 316 296 334 228 12 197 155 167 145 169 147
23 21 18 18 14 13 9 6 7 5 3 0 356 353 345 334 319 314 291 280 255 255 245 241 251 254 292 147 177 180 186 200 218 232 269 290 304 281 259 279 235 224 225 63 146 173 130
23 19 16 16 14 11 8 4 3 3 1 359 354 351 347 336 321 309 282 256 227 228 244 238 248 229 216 143 189 190 195 206 211 227 252 281 277 271 235 253 11 333 267 150 201 197 145
18 16 14 13 12 8 9 7 3 1 359 357 354 349 345 337 320 298 251 192 220 194 235 247 266 256 203 211 179 184 200 234 216 223 241 246 246 247 183 150 198 239 247 322 179 177 211
16 14 11 10 10 9 9 5 1 359 357 356 353 348 345 337 308 272 190 188 204 201 210 226 197 230 132 123 161 189 193 212 221 231 239 202 258 114 253 165 340 302 306 301 201 123 271
13 11 9 7 8 6 2 2 360 357 356 356 352 345 343 338 302 253 230 250 20 353 246 218 236 256 192 178 180 190 187 209 212 230 218 221 238 173 22 297 279 272 77 274 352 23 248
8 8 6 4 4 2 360 359 358 355 353 352 350 344 341 336 295 239 230 250 302 319 258 199 208 216 194 211 227 183 197 212 227 231 252 251 71 325 254 288 290 326 106 249 184 207 221
6 4 3 0 360 359 357 357 355 353 351 349 346 342 339 332 264 222 231 227 253 298 273 184 201 223 213 200 229 233 194 220 232 248 244 246 255 208 258 263 284 109 336 287 8 294 99
4 2 0 358 356 356 355 354 352 350 349 346 342 336 334 298 308 231 62 196 262 253 267 130 159 133 182 206 227 203 194 225 249 233 252 250 231 210 245 222 305 14 320 323 342 261 280
2 0 359 356 355 354 353 352 349 348 346 343 337 330 327 322 232 249 262 248 235 233 250 157 155 194 205 200 223 166 203 224 243 254 250 255 292 289 263 289 257 314 275 230 162 202 290
359 358 357 355 355 353 352 350 349 346 344 339 332 318 285 242 208 218 214 221 222 244 92 160 176 181 197 192 214 183 199 203 223 222 240 234 248 231 230 254 247 231 256 254 219 204 161
358 356 355 353 353 353 350 349 348 345 343 337 329 312 279 215 238 235 217 220 250 226 227 91 186 181 202 189 213 198 209 218 217 240 254 225 222 222 217 221 262 277 280 292 295 244 173
357 356 354 353 352 351 349 348 347 344 344 336 331 280 226 249 208 208 223 223 217 251 288 204 189 204 200 210 212 203 218 225 222 216 247 251 250 283 209 214 217 256 253 287 292 285 230
357 355 354 353 352 350 349 348 348 345 345 334 323 245 178 180 182 203 227 241 245 310 322 265 241 206 219 204 200 238 207 223 240 228 216 254 279 223 227 226 252 263 279 271 236 272 276
357 355 354 353 352 349 349 348 350 348 345 329 251 227 115 170 175 215 223 233 240 176 246 263 251 263 250 234 210 230 215 203 239 218 229 227 246 224 184 211 230 192 233 256 278 280 259
355 356 355 354 352 351 351 349 354 355 347 347 280 228 144 165 197 216 227 242 267 257 205 257 270 288 289 251 233 232 215 231 160 246 207 231 254 236 205 209 300 293 295 213 238 241 274
356 356 357 357 354 353 351 351 357 359 358 321 257 123 163 202 223 223 224 242 249 228 240 237 242 243 318 281 251 243 225 105 152 226 237 246 227 250 230 211 193 236 242 266 254 260 279
358 354 357 358 357 356 353 354 357 358 347 290 273 207 152 210 259 286 233 233 242 211 264 275 269 277 275 255 258 275 236 144 185 240 12 290 262 248 246 235 272 192 231 219 280 256 243
355 355 357 358 358 357 356 357 359 358 341 248 237 287 11 200 225 236 258 262 234 237 194 262 248 247 253 252 253 212 255 186 196 157 227 236 252 267 273 289 298 287 215 214 229 272 290
355 357 358 359 359 359 359 358 1 2 339 252 316 337 336 288 290 258 218 246 248 242 237 238 231 270 238 240 261 262 235 239 209 180 235 222 256 269 283 273 260 266 266 271 279 231 261
355 355 356 359 1 2 0 360 3 8 15 0 354 296 273 236 238 226 241 226 222 259 279 258 297 283 267 266 320 323 304 303 308 200 216 242 249 249 252 260 265 235 252 258 259 267 247
356 357 358 359 0 2 2 0 1 11 15 322 3 307 272 264 233 269 289 288 272 254 262 255 260 254 9 306 296 276 269 264 260 259 273 246 262 275 276 280 262 256 79 309 311 271 237
356 358 360 357 360 1 2 0 359 5 12 348 353 342 314 282 340 290 241 270 266 251 248 258 215 327 292 269 247 236 233 235 232 245 242 268 264 265 256 253 259 270 184 221 231 251 187
355 360 3 0 356 358 0 0 359 1 7 359 355 346 305 303 50 349 298 304 276 234 203 246 164 275 271 260 233 247 235 226 222 221 215 253 253 265 261 264 268 285 56 31 345 253 163
356 2 3 0 1 359 1 358 358 360 4 354 330 354 297 293 342 338 302 338 348 302 285 141 210 238 238 257 251 244 235 246 250 225 165 219 229 245 241 249 262 46 80 159 252 351 109
355 359 2 1 2 0 358 356 354 356 3 1 320 357 343 308 303 314 308 311 306 259 275 42 258 220 256 246 262 260 265 265 262 269 292 295 256 245 251 262 254 34 194 283 24 31 141
352 354 359 360 0 0 -0 358 350 352 357 1 299 342 322 265 303 313 285 282 284 308 317 304 328 306 0 288 244 292 273 285 290 278 270 248 278 302 325 2 14 343 346 6 317 140 138